Regional Weather Roundup
Issued by NWS

Home | Current Version | Previous Version | Graphics & Text | Print | Product List | Glossary On
Versions: 1 2 3 4 5 6 7 8 9 10 11 12 13 14 15 16 17 18 19 20 21 22 23 24 25 26 27 28 29 30 31 32 33 34 35 36 37 38 39 40 41 42 43 44 45 46 47 48 49 50
000
ASUS43 KOAX 281602
RWRNE

WEATHER ROUNDUP FOR NEBRASKA
NATIONAL WEATHER SERVICE OMAHA NE
1100 AM CDT SAT MAR 28 2015

NOTES: SATELLITE DATA IS BEING USED TO AUGMENT CLOUD COVER ABOVE
       12000 FEET.
       "FAIR" INDICATES FEW OR NO CLOUDS BELOW 12,000 FEET WITH NO
       SIGNIFICANT WEATHER AND/OR OBSTRUCTIONS TO VISIBILITY.

  * THESE STATIONS DO NOT REPORT WEATHER SUCH AS RAIN...SNOW OR FOG.

NEZ001>004-019>022-054>056-281700-
NEBRASKA PANHANDLE

CITY           SKY/WX    TMP DP  RH WIND       PRES   REMARKS
SCOTTSBLUFF    SUNNY     60  32  34 VRB6      29.98F
ALLIANCE       SUNNY     62  33  33 W7        29.96F
CHADRON        SUNNY     62  38  40 SW5       29.92F
KIMBALL        SUNNY     67  29  23 W14G21    30.01F
SIDNEY         SUNNY     66  35  31 NW10      30.01S
$$

NEZ057>060-069>072-079>082-281700-
SOUTHWEST NEBRASKA

CITY           SKY/WX    TMP DP  RH WIND       PRES   REMARKS
NORTH PLATTE   SUNNY     56  37  49 SE7       30.00F
IMPERIAL         N/A     59  34  39 MISG      30.00F
LEXINGTON      SUNNY     48  34  58 SE6       30.04R
MCCOOK         SUNNY     53  36  52 E5        30.02S
OGALLALA       SUNNY     56  35  45 S3        29.99F
$$

NEZ005>010-023>029-035>040-094-281700-
NORTH CENTRAL NEBRASKA

CITY           SKY/WX    TMP DP  RH WIND       PRES   REMARKS
VALENTINE      SUNNY     56  34  43 S10       29.96F
AINSWORTH      SUNNY     54  35  47 S10       29.99R
BROKEN BOW     SUNNY     46  32  58 SE6       30.02S
O`NEILL        SUNNY     42  31  64 SE10      30.04S
ORD            SUNNY     42  26  53 SE8       30.04S
$$

NEZ041-046>049-061>064-073>077-083>087-281700-
SOUTH CENTRAL NEBRASKA

CITY           SKY/WX    TMP DP  RH WIND       PRES   REMARKS
GRAND ISLAND   SUNNY     43  27  53 SE9       30.08S
AURORA         SUNNY     43  28  56 SE8       30.08S
HASTINGS       SUNNY     44  28  53 SE9       30.06R
HEBRON         SUNNY     46  28  49 SE6       30.10R
HOLDREGE       SUNNY     46  29  51 E6        30.04S
KEARNEY *      SUNNY     45  27  49 SE7       30.05S
YORK           SUNNY     41  30  65 SE10      30.10S
$$

NEZ011>018-030>034-042>045-281700-
NORTHEAST NEBRASKA

CITY           SKY/WX    TMP DP  RH WIND       PRES   REMARKS
NORFOLK        SUNNY     40  29  64 SE12      30.10S WCI  33
ALBION         SUNNY     40  27  58 SE12      30.08S WCI  33
BLAIR          SUNNY     43  27  53 SE12G17   30.15R
COLUMBUS *     SUNNY     39  27  60 S12       30.13S WCI  32
FREMONT        SUNNY     43  27  53 SE14      30.15R
TEKAMAH        SUNNY     44  26  49 SE22G38   30.17S
WAYNE          SUNNY     40  28  62 SE16G22   30.13F WCI  31
$$

NEZ050>053-065>068-078-088>093-281700-
SOUTHEAST NEBRASKA

CITY           SKY/WX    TMP DP  RH WIND       PRES   REMARKS
LINCOLN        SUNNY     42  28  57 SE16      30.15R
OMAHA EPPLEY   SUNNY     43  26  51 S18       30.17S
BEATRICE       SUNNY     44  29  56 SE12G17   30.12R
FALLS CITY     SUNNY     45  29  53 SE18      30.16R
NEBRASKA CITY  SUNNY     42  26  52 SE16      30.16S
PLATTSMOUTH    SUNNY     43  26  50 SE14G20   30.16S
$$

NEZ044-045-051>053-067-281700-
OMAHA AREA

CITY           SKY/WX    TMP DP  RH WIND       PRES   REMARKS
OMAHA EPPLEY   SUNNY     43  26  51 S18       30.17S
BLAIR          SUNNY     43  27  53 SE12G17   30.15R
FREMONT        SUNNY     43  27  53 SE14      30.15R
MILLARD        SUNNY     42  27  55 SE13      30.16S
OFFUTT AFB     SUNNY     44  27  51 SE15      30.16S
PLATTSMOUTH    SUNNY     43  26  50 SE14G20   30.16S
WAHOO          FAIR      42  27  55 SE15G21   30.15R
$$



USA.gov is the U.S. government's official web portal to all federal, state and local government web resources and services.